This is the latest recevied weather packets stored in our database for station/object W4MLN-1. If no packets are shown the sender has not sent any weather packets the latest 10 day(s).
| Time | Temp. | Humidity | Pressure | Rain* | Wind** | Luminosity | Snow |
|---|---|---|---|---|---|---|---|
| 1777769609 | 6.67° C | 66% | 1013.8 hPa | 0 mm | - | 0 W/m² | - |
| 1777769308 | 6.67° C | 65% | 1013.7 hPa | 0 mm | - | 0 W/m² | - |
| 1777769008 | 7.22° C | 63% | 1013.6 hPa | 0 mm | - | 0 W/m² | - |
| 1777768705 | 7.22° C | 62% | 1013.5 hPa | 0 mm | - | 0 W/m² | - |
| 1777768405 | 7.78° C | 60% | 1013.6 hPa | 0 mm | - | 0 W/m² | - |
| 1777768102 | 7.78° C | 59% | 1013.6 hPa | 0 mm | - | 0 W/m² | - |
| 1777767801 | 7.78° C | 58% | 1013.7 hPa | 0 mm | - | 2 W/m² | - |
| 1777767502 | 7.78° C | 58% | 1013.7 hPa | 0 mm | - | 3 W/m² | - |
| 1777767202 | 8.33° C | 57% | 1013.7 hPa | 0 mm | - | 5 W/m² | - |
| 1777766902 | 8.33° C | 56% | 1013.6 hPa | 0 mm | - | 9 W/m² | - |
| 1777766602 | 8.33° C | 55% | 1013.5 hPa | 0 mm | - | 13 W/m² | - |
| 1777766303 | 8.33° C | 54% | 1013.5 hPa | 0 mm | - | 16 W/m² | - |
| 1777766002 | 8.89° C | 55% | 1013.4 hPa | 0 mm | - | 20 W/m² | - |
| 1777765703 | 8.89° C | 54% | 1013.3 hPa | 0 mm | - | 24 W/m² | - |
| 1777765399 | 8.89° C | 53% | 1013.2 hPa | 0 mm | - | 30 W/m² | - |
| 1777765100 | 9.44° C | 53% | 1013.2 hPa | 0 mm | - | 39 W/m² | - |
| 1777764800 | 9.44° C | 53% | 1013.2 hPa | 0 mm | - | 47 W/m² | - |
| 1777764500 | 9.44° C | 52% | 1013.2 hPa | 0 mm | - | 49 W/m² | - |
| 1777764200 | 10° C | 51% | 1013.1 hPa | 0 mm | - | 72 W/m² | - |
| 1777763900 | 10° C | 51% | 1013.1 hPa | 0 mm | - | 80 W/m² | - |
| 1777763600 | 10° C | 51% | 1013 hPa | 0 mm | - | 92 W/m² | - |
| 1777763300 | 10° C | 52% | 1012.8 hPa | 0 mm | - | 124 W/m² | - |
| 1777763000 | 9.44° C | 51% | 1013 hPa | 0 mm | - | 114 W/m² | - |
| 1777762700 | 9.44° C | 50% | 1013 hPa | 0 mm | - | 64 W/m² | - |
| 1777762398 | 9.44° C | 50% | 1013 hPa | 0 mm | - | 56 W/m² | - |
* Rain latest hour (hover to see other rain measurements)
** Current wind speed in m/s (hover to see current wind gust speed)